Time,TemperatureF,DewpointF,PressureIn,WindDirection,WindDirectionDegrees,WindSpeedMPH,WindSpeedGustMPH,Humidity,HourlyPrecipIn,Conditions,Clouds,dailyrainin,SoftwareType,DateUTC
2013-07-24 00:00:00,75.3,54.8,28.20,North,0,0.4,21.9,91,0.00,,,-99.99,HOBO +U30 +Weather +,2013-07-24 07:00:00,
2013-07-24 00:15:00,75.1,54.8,28.20,North,0,0.0,24.2,91,0.00,,,-99.99,HOBO +U30 +Weather +,2013-07-24 07:15:00,
2013-07-24 00:30:00,75.0,54.6,28.20,North,0,0.0,0.0,92,0.00,,,-99.99,HOBO +U30 +Weather +,2013-07-24 07:30:00,
2013-07-24 00:45:00,74.8,54.1,28.20,North,0,0.0,24.4,92,0.00,,,-99.99,HOBO +U30 +Weather +,2013-07-24 07:45:00,
2013-07-24 01:00:00,74.7,54.2,28.20,North,0,0.0,24.2,93,0.00,,,-99.99,HOBO +U30 +Weather +,2013-07-24 08:00:00,
2013-07-24 01:15:00,74.5,53.9,28.20,North,0,0.0,0.0,93,0.00,,,-99.99,HOBO +U30 +Weather +,2013-07-24 08:15:00,
2013-07-24 01:30:00,74.3,53.0,28.20,North,0,0.0,0.0,93,0.00,,,-99.99,HOBO +U30 +Weather +,2013-07-24 08:30:00,
2013-07-24 01:45:00,74.2,53.1,28.20,North,0,0.0,0.0,94,0.00,,,-99.99,HOBO +U30 +Weather +,2013-07-24 08:45:00,
2013-07-24 02:00:00,74.0,53.3,28.20,North,0,0.0,0.0,94,0.00,,,-99.99,HOBO +U30 +Weather +,2013-07-24 09:00:00,
2013-07-24 02:15:00,73.9,53.2,28.20,North,0,0.0,0.0,95,0.00,,,-99.99,HOBO +U30 +Weather +,2013-07-24 09:15:00,
2013-07-24 02:30:00,73.7,52.8,28.20,North,0,0.0,0.0,94,0.00,,,-99.99,HOBO +U30 +Weather +,2013-07-24 09:30:00,
2013-07-24 02:45:00,73.6,52.1,28.20,North,0,0.0,0.0,95,0.00,,,-99.99,HOBO +U30 +Weather +,2013-07-24 09:45:00,
2013-07-24 03:00:00,73.4,52.3,28.20,North,0,0.0,0.0,94,0.00,,,-99.99,HOBO +U30 +Weather +,2013-07-24 10:00:00,
2013-07-24 03:15:00,73.2,51.8,28.20,North,0,0.0,0.0,95,0.00,,,-99.99,HOBO +U30 +Weather +,2013-07-24 10:15:00,
2013-07-24 03:30:00,73.0,51.3,28.20,WNW,282,0.0,0.0,95,0.00,,,-99.99,HOBO +U30 +Weather +,2013-07-24 10:30:00,
2013-07-24 03:45:00,72.9,51.8,28.20,West,275,0.0,0.0,95,0.00,,,-99.99,HOBO +U30 +Weather +,2013-07-24 10:45:00,
2013-07-24 04:00:00,72.7,51.5,28.20,West,275,0.0,1.3,95,0.00,,,-99.99,HOBO +U30 +Weather +,2013-07-24 11:00:00,
2013-07-24 04:15:00,72.6,50.9,28.20,West,275,0.0,24.2,95,0.00,,,-99.99,HOBO +U30 +Weather +,2013-07-24 11:15:00,
2013-07-24 04:30:00,72.4,50.4,28.20,West,275,0.4,24.2,95,0.00,,,-99.99,HOBO +U30 +Weather +,2013-07-24 11:30:00,
2013-07-24 04:45:00,72.3,50.3,28.20,West,275,0.0,1.3,95,0.00,,,-99.99,HOBO +U30 +Weather +,2013-07-24 11:45:00,
2013-07-24 05:00:00,72.1,50.0,28.20,West,275,0.0,23.7,96,0.00,,,-99.99,HOBO +U30 +Weather +,2013-07-24 12:00:00,
2013-07-24 05:15:00,72.0,50.1,28.20,West,275,0.0,0.0,96,0.00,,,-99.99,HOBO +U30 +Weather +,2013-07-24 12:15:00,
2013-07-24 05:30:00,71.8,49.6,28.20,West,275,0.0,27.1,96,0.00,,,-99.99,HOBO +U30 +Weather +,2013-07-24 12:30:00,
2013-07-24 05:45:00,71.7,49.9,28.20,NNW,337,0.4,2.0,96,0.00,,,-99.99,HOBO +U30 +Weather +,2013-07-24 12:45:00,
2013-07-24 06:00:00,71.5,49.4,28.21,NNW,345,0.0,26.6,95,0.00,,,-99.99,HOBO +U30 +Weather +,2013-07-24 13:00:00,
2013-07-24 06:15:00,71.3,49.8,28.21,NNW,345,0.0,0.0,96,0.00,,,-99.99,HOBO +U30 +Weather +,2013-07-24 13:15:00,
2013-07-24 06:30:00,71.2,49.6,28.21,NNW,345,0.0,0.4,96,0.00,,,-99.99,HOBO +U30 +Weather +,2013-07-24 13:30:00,
2013-07-24 06:45:00,71.1,49.9,28.21,NNW,345,0.0,2.0,95,0.00,,,-99.99,HOBO +U30 +Weather +,2013-07-24 13:45:00,
2013-07-24 07:00:00,70.9,50.3,28.21,NNW,345,0.0,0.0,96,0.00,,,-99.99,HOBO +U30 +Weather +,2013-07-24 14:00:00,
2013-07-24 07:15:00,70.8,51.7,28.21,NNW,345,0.0,0.0,96,0.00,,,-99.99,HOBO +U30 +Weather +,2013-07-24 14:15:00,
2013-07-24 07:30:00,70.6,53.5,28.21,NNW,345,0.0,0.0,96,0.00,,,-99.99,HOBO +U30 +Weather +,2013-07-24 14:30:00,
2013-07-24 07:45:00,70.5,56.8,28.21,NNW,345,0.0,0.0,85,0.00,,,-99.99,HOBO +U30 +Weather +,2013-07-24 14:45:00,
2013-07-24 08:00:00,70.4,57.0,28.21,NNW,345,0.0,1.3,85,0.00,,,-99.99,HOBO +U30 +Weather +,2013-07-24 15:00:00,
2013-07-24 08:15:00,70.2,58.8,28.21,NNW,345,0.0,13.6,86,0.00,,,-99.99,HOBO +U30 +Weather +,2013-07-24 15:15:00,
2013-07-24 08:30:00,70.2,58.4,28.21,NNW,345,0.0,24.8,81,0.00,,,-99.99,HOBO +U30 +Weather +,2013-07-24 15:30:00,
2013-07-24 08:45:00,70.1,57.3,28.21,West,265,2.0,6.7,79,0.00,,,-99.99,HOBO +U30 +Weather +,2013-07-24 15:45:00,
2013-07-24 09:00:00,70.0,57.1,28.20,NNW,337,1.3,16.1,75,0.00,,,-99.99,HOBO +U30 +Weather +,2013-07-24 16:00:00,
2013-07-24 09:15:00,70.0,58.7,28.20,WNW,292,1.6,24.8,71,0.00,,,-99.99,HOBO +U30 +Weather +,2013-07-24 16:15:00,
2013-07-24 09:30:00,69.9,58.0,28.20,WSW,240,2.5,25.3,68,0.00,,,-99.99,HOBO +U30 +Weather +,2013-07-24 16:30:00,
2013-07-24 09:45:00,69.9,60.0,28.20,NW,306,2.5,5.8,63,0.00,,,-99.99,HOBO +U30 +Weather +,2013-07-24 16:45:00,
2013-07-24 10:00:00,69.9,60.0,28.20,WNW,295,1.6,6.3,59,0.00,,,-99.99,HOBO +U30 +Weather +,2013-07-24 17:00:00,
2013-07-24 10:15:00,69.9,59.7,28.19,NW,320,2.0,25.3,59,0.00,,,-99.99,HOBO +U30 +Weather +,2013-07-24 17:15:00,
2013-07-24 10:30:00,69.9,59.8,28.19,NW,323,2.9,7.2,59,0.00,,,-99.99,HOBO +U30 +Weather +,2013-07-24 17:30:00,
2013-07-24 10:45:00,70.0,59.7,28.19,WNW,289,3.4,20.8,57,0.00,,,-99.99,HOBO +U30 +Weather +,2013-07-24 17:45:00,
2013-07-24 11:00:00,70.2,58.8,28.19,WNW,295,3.8,25.7,56,0.00,,,-99.99,HOBO +U30 +Weather +,2013-07-24 18:00:00,
2013-07-24 11:15:00,70.3,59.2,28.20,NW,316,3.8,29.1,54,0.00,,,-99.99,HOBO +U30 +Weather +,2013-07-24 18:15:00,
2013-07-24 11:30:00,70.4,59.5,28.20,West,281,4.9,10.7,54,0.00,,,-99.99,HOBO +U30 +Weather +,2013-07-24 18:30:00,
2013-07-24 11:45:00,70.6,58.7,28.19,WNW,289,4.9,27.7,52,0.00,,,-99.99,HOBO +U30 +Weather +,2013-07-24 18:45:00,
2013-07-24 12:00:00,70.8,59.4,28.19,WNW,291,4.9,32.4,51,0.00,,,-99.99,HOBO +U30 +Weather +,2013-07-24 19:00:00,
2013-07-24 12:15:00,71.0,59.2,28.19,West,268,5.4,29.5,53,0.00,,,-99.99,HOBO +U30 +Weather +,2013-07-24 19:15:00,
2013-07-24 12:30:00,71.2,59.7,28.19,WSW,254,6.3,31.1,53,0.00,,,-99.99,HOBO +U30 +Weather +,2013-07-24 19:30:00,
2013-07-24 12:45:00,71.4,60.3,28.19,West,267,5.4,23.3,50,0.00,,,-99.99,HOBO +U30 +Weather +,2013-07-24 19:45:00,
2013-07-24 13:00:00,71.6,60.4,28.19,West,272,7.2,29.5,51,0.00,,,-99.99,HOBO +U30 +Weather +,2013-07-24 20:00:00,
2013-07-24 13:15:00,71.8,59.9,28.19,West,267,6.3,17.0,51,0.00,,,-99.99,HOBO +U30 +Weather +,2013-07-24 20:15:00,
2013-07-24 13:30:00,72.1,59.9,28.19,WNW,286,6.3,27.7,49,0.00,,,-99.99,HOBO +U30 +Weather +,2013-07-24 20:30:00,
2013-07-24 13:45:00,72.3,60.0,28.19,WNW,288,7.2,15.4,49,0.00,,,-99.99,HOBO +U30 +Weather +,2013-07-24 20:45:00,
2013-07-24 14:00:00,72.6,59.6,28.19,West,279,6.7,22.8,48,0.00,,,-99.99,HOBO +U30 +Weather +,2013-07-24 21:00:00,
2013-07-24 14:15:00,72.8,59.6,28.18,West,265,7.4,30.6,48,0.00,,,-99.99,HOBO +U30 +Weather +,2013-07-24 21:15:00,
2013-07-24 14:30:00,73.1,59.5,28.18,WSW,258,6.7,13.2,47,0.00,,,-99.99,HOBO +U30 +Weather +,2013-07-24 21:30:00,
2013-07-24 14:45:00,73.4,59.5,28.18,West,260,6.7,15.4,47,0.00,,,-99.99,HOBO +U30 +Weather +,2013-07-24 21:45:00,
2013-07-24 15:00:00,73.7,58.8,28.18,West,261,6.7,30.2,45,0.00,,,-99.99,HOBO +U30 +Weather +,2013-07-24 22:00:00,
2013-07-24 15:15:00,74.0,58.4,28.18,West,260,7.2,30.0,44,0.00,,,-99.99,HOBO +U30 +Weather +,2013-07-24 22:15:00,
2013-07-24 15:30:00,74.2,58.7,28.17,West,263,6.3,27.3,44,0.00,,,-99.99,HOBO +U30 +Weather +,2013-07-24 22:30:00,
2013-07-24 15:45:00,74.6,57.7,28.18,West,261,5.8,14.5,41,0.00,,,-99.99,HOBO +U30 +Weather +,2013-07-24 22:45:00,
2013-07-24 16:00:00,74.9,56.4,28.17,West,263,5.8,31.1,40,0.00,,,-99.99,HOBO +U30 +Weather +,2013-07-24 23:00:00,
2013-07-24 16:15:00,75.1,57.1,28.17,West,261,6.3,28.6,40,0.00,,,-99.99,HOBO +U30 +Weather +,2013-07-24 23:15:00,
2013-07-24 16:36:00,75.4,57.4,28.17,West,274,5.8,14.1,40,0.00,,,-99.99,HOBO +U30 +Weather +,2013-07-24 23:36:00,
2013-07-24 16:45:00,75.7,57.1,28.17,West,265,6.7,21.3,40,0.00,,,-99.99,HOBO +U30 +Weather +,2013-07-24 23:45:00,
2013-07-24 17:00:00,76.0,56.9,28.17,West,274,5.8,14.1,40,0.00,,,-99.99,HOBO +U30 +Weather +,2013-07-25 00:00:00,
2013-07-24 17:15:00,76.2,56.0,28.17,West,274,6.3,28.2,40,0.00,,,-99.99,HOBO +U30 +Weather +,2013-07-25 00:15:00,
2013-07-24 17:30:00,76.5,55.8,28.17,West,275,5.4,16.1,40,0.00,,,-99.99,HOBO +U30 +Weather +,2013-07-25 00:30:00,
2013-07-24 17:45:00,76.8,55.7,28.17,WNW,288,4.9,29.1,39,0.00,,,-99.99,HOBO +U30 +Weather +,2013-07-25 00:45:00,
2013-07-24 18:00:00,77.0,56.1,28.17,West,277,4.5,28.2,41,0.00,,,-99.99,HOBO +U30 +Weather +,2013-07-25 01:00:00,
2013-07-24 18:15:00,77.2,56.3,28.17,West,272,5.4,27.1,43,0.00,,,-99.99,HOBO +U30 +Weather +,2013-07-25 01:15:00,
2013-07-24 18:30:00,77.4,56.6,28.17,West,265,4.5,34.9,44,0.00,,,-99.99,HOBO +U30 +Weather +,2013-07-25 01:30:00,
2013-07-24 18:45:00,77.5,56.3,28.17,West,279,3.8,10.7,43,0.00,,,-99.99,HOBO +U30 +Weather +,2013-07-25 01:45:00,
2013-07-24 19:00:00,77.6,56.7,28.17,WNW,284,2.5,29.1,43,0.00,,,-99.99,HOBO +U30 +Weather +,2013-07-25 02:00:00,
2013-07-24 19:15:00,77.6,54.4,28.18,WNW,286,3.4,26.2,43,0.00,,,-99.99,HOBO +U30 +Weather +,2013-07-25 02:15:00,
2013-07-24 19:30:00,77.7,54.9,28.18,NW,306,2.5,28.2,45,0.00,,,-99.99,HOBO +U30 +Weather +,2013-07-25 02:30:00,
2013-07-24 19:45:00,77.7,55.0,28.18,West,278,2.5,6.7,47,0.00,,,-99.99,HOBO +U30 +Weather +,2013-07-25 02:45:00,
2013-07-24 20:00:00,77.7,55.6,28.18,NNW,336,1.6,14.5,55,0.00,,,-99.99,HOBO +U30 +Weather +,2013-07-25 03:00:00,
2013-07-24 20:15:00,77.7,56.0,28.18,North,11,4.5,27.1,62,0.00,,,-99.99,HOBO +U30 +Weather +,2013-07-25 03:15:00,
2013-07-24 20:30:00,77.7,55.2,28.19,North,7,4.9,22.8,61,0.00,,,-99.99,HOBO +U30 +Weather +,2013-07-25 03:30:00,
2013-07-24 20:54:00,77.6,55.4,28.19,North,10,3.8,30.0,66,0.00,,,-99.99,HOBO +U30 +Weather +,2013-07-25 03:54:00,
2013-07-24 21:00:00,77.6,55.2,28.19,North,4,3.4,26.6,68,0.00,,,-99.99,HOBO +U30 +Weather +,2013-07-25 04:00:00,
2013-07-24 21:15:00,77.5,55.4,28.19,North,354,2.5,9.6,69,0.00,,,-99.99,HOBO +U30 +Weather +,2013-07-25 04:15:00,
2013-07-24 21:30:00,77.4,55.5,28.20,North,7,1.6,25.7,72,0.00,,,-99.99,HOBO +U30 +Weather +,2013-07-25 04:30:00,
2013-07-24 21:53:00,77.3,55.3,28.20,NNE,18,0.4,2.0,76,0.00,,,-99.99,HOBO +U30 +Weather +,2013-07-25 04:53:00,
2013-07-24 22:00:00,77.2,55.1,28.20,NNE,18,0.0,23.7,78,0.00,,,-99.99,HOBO +U30 +Weather +,2013-07-25 05:00:00,
2013-07-24 22:15:00,77.0,55.1,28.20,NNE,18,0.0,22.8,79,0.00,,,-99.99,HOBO +U30 +Weather +,2013-07-25 05:15:00,
2013-07-24 22:30:00,76.9,54.9,28.20,NNE,18,1.6,24.4,80,0.00,,,-99.99,HOBO +U30 +Weather +,2013-07-25 05:30:00,
2013-07-24 22:45:00,76.8,54.5,28.21,NNE,18,0.9,22.8,82,0.00,,,-99.99,HOBO +U30 +Weather +,2013-07-25 05:45:00,
2013-07-24 23:00:00,76.6,54.1,28.21,NNE,18,0.9,24.4,84,0.00,,,-99.99,HOBO +U30 +Weather +,2013-07-25 06:00:00,
2013-07-24 23:23:00,76.5,54.0,28.21,NNE,18,0.9,20.8,85,0.00,,,-99.99,HOBO +U30 +Weather +,2013-07-25 06:23:00,
2013-07-24 23:30:00,76.3,53.8,28.21,NNE,18,0.4,22.8,85,0.00,,,-99.99,HOBO +U30 +Weather +,2013-07-25 06:30:00,
2013-07-24 23:45:00,76.2,53.7,28.21,NNE,18,0.0,0.0,87,0.00,,,-99.99,HOBO +U30 +Weather +,2013-07-25 06:45:00,